N5VKM Weather Reports


Display with metric or nautical units.
time (UTC)temp
F
wind
direction
speed
MPH
gust
MPH
rain 1hr
in
rain 24hr
in
rain mn
in
humidity
%
barometer
mb
20260905185541 98 329 0.0 0.0 0.00 0.00 0.00 45 1013.6
20260905185029 98 332 0.0 0.0 0.00 0.00 0.00 44 1013.7
20260905184543 97 331 0.0 0.0 0.00 0.00 0.00 44 1013.7
20260905184035 97 332 0.0 0.0 0.00 0.00 0.00 45 1013.9
20260905183610 97 331 0.0 0.0 0.00 0.00 0.00 45 1014.0
20260905183036 96 333 0.0 0.0 0.00 0.00 0.00 47 1014.0
20260905182544 96 331 0.0 0.0 0.00 0.00 0.00 49 1014.0
20260905182052 95 333 0.0 0.0 0.00 0.00 0.00 50 1014.1
20260905181542 95 331 0.0 0.0 0.00 0.00 0.00 50 1014.1
20260905181034 95 331 0.0 0.0 0.00 0.00 0.00 50 1014.2
20260905180542 96 330 0.0 0.0 0.00 0.00 0.00 48 1014.4
20260905180031 97 330 0.0 0.0 0.00 0.00 0.00 47 1014.4
20260905175540 97 333 0.0 0.0 0.00 0.00 0.00 48 1014.5
20260905175032 97 331 0.0 0.0 0.00 0.00 0.00 48 1014.6
20260905174602 97 330 0.0 0.0 0.00 0.00 0.00 48 1014.6
20260905174031 97 332 0.0 0.0 0.00 0.00 0.00 49 1014.7
20260905173538 96 330 0.0 0.0 0.00 0.00 0.00 51 1014.7
20260905173030 96 330 0.0 0.0 0.00 0.00 0.00 50 1014.8
20260905172537 96 331 0.0 0.0 0.00 0.00 0.00 51 1014.8
20260905172056 96 330 0.0 0.0 0.00 0.00 0.00 51 1014.9
20260905171531 96 331 0.0 0.0 0.00 0.00 0.00 51 1015.0
20260905171038 96 335 0.0 0.0 0.00 0.00 0.00 52 1015.0
20260905170547 95 330 0.0 0.0 0.00 0.00 0.00 52 1015.1
20260905170035 95 331 0.0 0.0 0.00 0.00 0.00 51 1015.1
20260905165546 95 331 0.0 0.0 0.00 0.00 0.00 51 1015.1
20260905165034 96 331 0.0 0.0 0.00 0.00 0.00 52 1015.2
20260905164606 95 333 0.0 0.0 0.00 0.00 0.00 54 1015.2
20260905164036 94 329 0.0 0.0 0.00 0.00 0.00 54 1015.1
20260905163546 94 329 0.0 0.0 0.00 0.00 0.00 54 1015.2
20260905163043 94 331 0.0 0.0 0.00 0.00 0.00 54 1015.3
20260905162533 93 332 0.0 0.0 0.00 0.00 0.00 56 1015.2
20260905162107 93 333 0.0 0.0 0.00 0.00 0.00 55 1015.3
20260905161534 93 333 0.0 0.0 0.00 0.00 0.00 55 1015.2
20260905161048 93 332 0.0 0.0 0.00 0.00 0.00 57 1015.2
20260905160601 92 336 0.0 0.0 0.00 0.00 0.00 57 1015.2
20260905160047 92 331 0.0 0.0 0.00 0.00 0.00 57 1015.2
20260905155541 92 332 0.0 0.0 0.00 0.00 0.00 57 1015.3
20260905155046 92 332 0.0 0.0 0.00 0.00 0.00 57 1015.3
20260905154538 92 332 0.0 0.0 0.00 0.00 0.00 59 1015.2
20260905154047 92 331 0.0 0.0 0.00 0.00 0.00 59 1015.2
20260905153538 91 334 0.0 0.0 0.00 0.00 0.00 62 1015.2
20260905153030 90 333 0.0 0.0 0.00 0.00 0.00 61 1015.2
20260905152558 90 334 0.0 0.0 0.00 0.00 0.00 61 1015.2
20260905152034 90 334 0.0 0.0 0.00 0.00 0.00 63 1015.2
20260905151542 90 334 0.0 0.0 0.00 0.00 0.00 63 1015.1
20260905151036 90 335 0.0 0.0 0.00 0.00 0.00 65 1015.0
20260905150544 89 334 0.0 0.0 0.00 0.00 0.00 65 1015.1
20260905150030 89 333 0.0 0.0 0.00 0.00 0.00 66 1015.0
20260905145548 88 334 0.0 0.0 0.00 0.00 0.00 67 1015.2
20260905145041 88 334 0.0 0.0 0.00 0.00 0.00 67 1015.2
20260905144529 88 334 0.0 0.0 0.00 0.00 0.00 68 1015.2
20260905144043 87 334 0.0 0.0 0.00 0.00 0.00 68 1015.2
20260905143557 87 334 0.0 0.0 0.00 0.00 0.00 69 1015.1
20260905143042 87 334 0.0 0.0 0.00 0.00 0.00 69 1015.1
20260905142534 87 334 0.0 0.0 0.00 0.00 0.00 69 1015.1
20260905142041 87 334 0.0 0.0 0.00 0.00 0.00 69 1015.1
20260905141534 86 334 0.0 0.0 0.00 0.00 0.00 70 1015.0
20260905141045 86 335 0.0 0.0 0.00 0.00 0.00 71 1015.0
20260905140554 86 333 0.0 0.0 0.00 0.00 0.00 72 1015.0
20260905140030 85 335 0.0 0.0 0.00 0.00 0.00 71 1014.9
20260905135541 85 333 0.0 0.0 0.00 0.00 0.00 71 1015.0
20260905135049 85 333 0.0 0.0 0.00 0.00 0.00 72 1014.9
20260905134539 85 333 0.0 0.0 0.00 0.00 0.00 73 1014.9
20260905134045 84 333 0.0 0.0 0.00 0.00 0.00 73 1014.9
20260905133534 84 333 0.0 0.0 0.00 0.00 0.00 74 1015.0
20260905133042 83 333 0.0 0.0 0.00 0.00 0.00 75 1014.9
20260905132529 83 333 0.0 0.0 0.00 0.00 0.00 75 1014.9
20260905132039 82 333 0.0 0.0 0.00 0.00 0.00 78 1014.8
20260905131530 81 333 0.0 0.0 0.00 0.00 0.00 80 1014.9
20260905131038 80 333 0.0 0.0 0.00 0.00 0.00 80 1014.8
20260905130529 80 334 0.0 0.0 0.00 0.00 0.00 81 1014.7
20260905130044 79 334 0.0 0.0 0.00 0.00 0.00 81 1014.7
20260905125532 79 334 0.0 0.0 0.00 0.00 0.00 81 1014.6
20260905125041 79 334 0.0 0.0 0.00 0.00 0.00 82 1014.5
20260905124528 78 334 0.0 0.0 0.00 0.00 0.00 82 1014.5
20260905124042 78 334 0.0 0.0 0.00 0.00 0.00 83 1014.5
20260905123536 78 334 0.0 0.0 0.00 0.00 0.00 83 1014.4
20260905123026 78 334 0.0 0.0 0.00 0.00 0.00 83 1014.3
20260905122556 77 334 0.0 0.0 0.00 0.00 0.00 83 1014.3
20260905122043 78 334 0.0 0.0 0.00 0.00 0.00 83 1014.2
20260905121534 77 334 0.0 0.0 0.00 0.00 0.00 83 1014.2
20260905121031 77 334 0.0 0.0 0.00 0.00 0.00 82 1014.1
20260905120540 78 334 0.0 0.0 0.00 0.00 0.00 82 1014.1
20260905120027 78 334 0.0 0.0 0.00 0.00 0.00 82 1014.0
20260905115540 78 334 0.0 0.0 0.00 0.00 0.00 82 1014.0
20260905115046 78 334 0.0 0.0 0.00 0.00 0.00 82 1014.0
20260905114537 77 334 0.0 0.0 0.00 0.00 0.00 82 1014.0
20260905114046 77 334 0.0 0.0 0.00 0.00 0.00 83 1014.0
20260905113534 77 334 0.0 0.0 0.00 0.00 0.00 83 1014.0
20260905113040 77 334 0.0 0.0 0.00 0.00 0.00 83 1014.0
20260905112531 77 334 0.0 0.0 0.00 0.00 0.00 83 1014.0
20260905112038 77 334 0.0 0.0 0.00 0.00 0.00 83 1014.0
20260905111531 78 334 0.0 0.0 0.00 0.00 0.00 83 1013.9
20260905111045 78 334 0.0 0.0 0.00 0.00 0.00 83 1013.9
20260905110532 78 334 0.0 0.0 0.00 0.00 0.00 83 1014.0
20260905110048 78 334 0.0 0.0 0.00 0.00 0.00 82 1014.0
20260905105537 78 334 0.0 0.0 0.00 0.00 0.00 82 1014.1
20260905105044 78 334 0.0 0.0 0.00 0.00 0.00 82 1014.1
20260905104537 78 334 0.0 0.0 0.00 0.00 0.00 82 1014.1
20260905104034 79 334 0.0 0.0 0.00 0.00 0.00 82 1014.2
20260905103605 79 334 0.0 0.0 0.00 0.00 0.00 81 1014.2
20260905103058 79 334 0.0 0.0 0.00 0.00 0.00 80 1014.2
20260905102529 79 334 0.0 0.0 0.00 0.00 0.00 79 1014.2
20260905102043 79 334 0.0 0.0 0.00 0.00 0.00 79 1014.1
20260905101537 79 334 0.0 0.0 0.00 0.00 0.00 78 1014.1
20260905101031 80 334 0.0 0.0 0.00 0.00 0.00 78 1014.1
20260905100529 80 334 0.0 0.0 0.00 0.00 0.00 78 1014.0
20260905100040 80 334 0.0 0.0 0.00 0.00 0.00 78 1014.1
20260905095533 80 334 0.0 0.0 0.00 0.00 0.00 78 1014.0
20260905095040 80 334 0.0 0.0 0.00 0.00 0.00 77 1014.0
20260905094533 80 334 0.0 0.0 0.00 0.00 0.00 77 1014.0
20260905094045 80 334 0.0 0.0 0.00 0.00 0.00 77 1014.0
20260905093533 80 334 0.0 0.0 0.00 0.00 0.00 77 1014.0
20260905093042 81 334 0.0 0.0 0.00 0.00 0.00 77 1013.9
20260905092530 81 334 0.0 0.0 0.00 0.00 0.00 77 1013.9
20260905092042 81 334 0.0 0.0 0.00 0.00 0.00 77 1013.8
20260905091529 81 334 0.0 0.0 0.00 0.00 0.00 76 1013.7
20260905091039 81 334 0.0 0.0 0.00 0.00 0.00 76 1013.6
20260905090547 81 334 0.0 0.0 0.00 0.00 0.00 76 1013.6
20260905090034 81 334 0.0 0.0 0.00 0.00 0.00 75 1013.6
20260905085608 81 334 0.0 0.0 0.00 0.00 0.00 75 1013.6
20260905085036 81 334 0.0 0.0 0.00 0.00 0.00 75 1013.5
20260905084533 81 334 0.0 0.0 0.00 0.00 0.00 75 1013.6
20260905084043 81 334 0.0 0.0 0.00 0.00 0.00 75 1013.6
20260905083535 81 334 0.0 0.0 0.00 0.00 0.00 75 1013.5
20260905083048 82 334 0.0 0.0 0.00 0.00 0.00 75 1013.4
20260905082542 82 334 0.0 0.0 0.00 0.00 0.00 75 1013.4
20260905082032 82 334 0.0 0.0 0.00 0.00 0.00 74 1013.4
20260905081543 82 334 0.0 0.0 0.00 0.00 0.00 74 1013.5
20260905081037 82 334 0.0 0.0 0.00 0.00 0.00 74 1013.5
20260905080547 82 334 0.0 0.0 0.00 0.00 0.00 74 1013.5
20260905080034 82 334 0.0 0.0 0.00 0.00 0.00 73 1013.5
20260905075530 82 334 0.0 0.0 0.00 0.00 0.00 73 1013.5
20260905075046 82 334 0.0 0.0 0.00 0.00 0.00 73 1013.5
20260905074532 82 334 0.0 0.0 0.00 0.00 0.00 73 1013.5
20260905074046 83 334 0.0 0.0 0.00 0.00 0.00 72 1013.5
20260905073536 83 334 0.0 0.0 0.00 0.00 0.00 72 1013.5
20260905073043 83 334 0.0 0.0 0.00 0.00 0.00 72 1013.6
20260905072530 83 334 0.0 0.0 0.00 0.00 0.00 72 1013.6
20260905072044 83 334 0.0 0.0 0.00 0.00 0.00 71 1013.7
20260905071531 83 333 0.0 0.0 0.00 0.00 0.00 71 1013.7
20260905071042 83 333 0.0 0.0 0.00 0.00 0.00 71 1013.7
20260905070530 83 333 0.0 0.0 0.00 0.00 0.00 71 1013.7
20260905070044 83 333 0.0 0.0 0.00 0.00 0.00 71 1013.9
20260905065553 84 333 0.0 0.0 0.00 0.00 0.00 70 1013.8
20260905065103 84 333 0.0 0.0 0.00 0.00 0.00 70 1013.9
20260905064528 84 334 0.0 0.0 0.00 0.00 0.00 70 1013.9
20260905064040 84 334 0.0 0.0 0.00 0.00 0.00 70 1013.8
20260905063531 84 333 0.0 0.0 0.00 0.00 0.00 70 1013.8
20260905063040 84 333 0.0 0.0 0.00 0.00 0.00 69 1013.9
20260905062548 84 333 0.0 0.0 0.00 0.00 0.00 69 1013.9
20260905062056 84 333 0.0 0.0 0.00 0.00 0.00 69 1013.9
20260905061542 84 334 0.0 0.0 0.00 0.00 0.00 69 1013.8
20260905061028 84 334 0.0 0.0 0.00 0.00 0.00 69 1013.7
20260905060603 84 333 0.0 0.0 0.00 0.00 0.00 69 1013.7
20260905060034 84 333 0.0 0.0 0.00 0.00 0.00 68 1013.7
20260905055548 85 333 0.0 0.0 0.00 0.00 0.00 68 1013.7
20260905055035 85 333 0.0 0.0 0.00 0.00 0.00 68 1013.6
20260905054542 85 334 0.0 0.0 0.00 0.00 0.00 68 1013.6
20260905054031 85 333 0.0 0.0 0.00 0.00 0.00 68 1013.5
20260905053541 85 333 0.0 0.0 0.00 0.00 0.00 67 1013.6
20260905053028 85 333 0.0 0.0 0.00 0.00 0.00 67 1013.7
20260905052541 85 333 0.0 0.0 0.00 0.00 0.00 67 1013.7
20260905052034 86 333 0.0 0.0 0.00 0.00 0.00 66 1013.7
20260905051540 86 333 0.0 0.0 0.00 0.00 0.00 66 1013.6
20260905051032 86 334 0.0 0.0 0.00 0.00 0.00 66 1013.5
20260905050547 86 334 0.0 0.0 0.00 0.00 0.00 65 1013.5
20260905050035 86 333 0.0 0.0 0.00 0.00 0.00 65 1013.5
20260905045546 86 333 0.0 0.0 0.00 0.00 0.00 65 1013.5
20260905045035 86 334 0.0 0.0 0.00 0.00 0.00 65 1013.6
20260905044530 86 334 0.0 0.0 0.00 0.00 0.00 65 1013.6
20260905044041 86 334 0.0 0.0 0.00 0.00 0.00 65 1013.7
20260905043549 87 333 0.0 0.0 0.00 0.00 0.00 64 1013.6
20260905043057 87 333 0.0 0.0 0.00 0.00 0.00 64 1013.6
20260905042539 87 333 0.0 0.0 0.00 0.00 0.00 64 1013.6
20260905042034 87 333 0.0 0.0 0.00 0.00 0.00 64 1013.6
20260905041540 87 333 0.0 0.0 0.00 0.00 0.00 63 1013.7
20260905041033 87 333 0.0 0.0 0.00 0.00 0.00 63 1013.6
20260905040538 87 333 0.0 0.0 0.00 0.00 0.00 63 1013.6
20260905040045 87 333 0.0 0.0 0.00 0.00 0.00 63 1013.6
20260905035537 87 333 0.0 0.0 0.00 0.00 0.00 62 1013.7
20260905035046 88 333 0.0 0.0 0.00 0.00 0.00 62 1013.6
20260905034553 88 333 0.0 0.0 0.00 0.00 0.00 62 1013.5
20260905034046 88 333 0.0 0.0 0.00 0.00 0.00 62 1013.5
20260905033533 88 333 0.0 0.0 0.00 0.00 0.00 62 1013.5
20260905033041 88 333 0.0 0.0 0.00 0.00 0.00 62 1013.5
20260905032532 88 333 0.0 0.0 0.00 0.00 0.00 62 1013.4
20260905032045 88 333 0.0 0.0 0.00 0.00 0.00 61 1013.4
20260905031539 88 331 0.0 0.0 0.00 0.00 0.00 61 1013.5
20260905031028 88 333 0.0 0.0 0.00 0.00 0.00 61 1013.5
20260905030541 88 332 0.0 0.0 0.00 0.00 0.00 61 1013.4
20260905030031 88 332 0.0 0.0 0.00 0.00 0.00 61 1013.4
20260905025549 88 333 0.0 0.0 0.00 0.00 0.00 61 1013.4
20260905025036 88 333 0.0 0.0 0.00 0.00 0.00 61 1013.2
20260905024530 88 332 0.0 0.0 0.00 0.00 0.00 60 1013.3
20260905024036 89 333 0.0 0.0 0.00 0.00 0.00 60 1013.2
20260905023529 89 333 0.0 0.0 0.00 0.00 0.00 60 1013.1
20260905023043 89 332 0.0 0.0 0.00 0.00 0.00 60 1013.1
20260905022530 89 333 0.0 0.0 0.00 0.00 0.00 59 1013.0
20260905022041 89 333 0.0 0.0 0.00 0.00 0.00 59 1012.9
20260905021531 89 333 0.0 0.0 0.00 0.00 0.00 59 1012.8
20260905021046 90 333 0.0 0.0 0.00 0.00 0.00 59 1012.8
20260905020538 90 332 0.0 0.0 0.00 0.00 0.00 58 1012.7
20260905020028 90 332 0.0 0.0 0.00 0.00 0.00 58 1012.7
20260905015558 90 332 0.0 0.0 0.00 0.00 0.00 58 1012.6
20260905015031 90 332 0.0 0.0 0.00 0.00 0.00 58 1012.6
20260905014538 90 332 0.0 0.0 0.00 0.00 0.00 58 1012.5
20260905014050 90 332 0.0 0.0 0.00 0.00 0.00 57 1012.4
20260905013537 91 332 0.0 0.0 0.00 0.00 0.00 57 1012.4
20260905013044 91 332 0.0 0.0 0.00 0.00 0.00 57 1012.3
20260905012537 91 332 0.0 0.0 0.00 0.00 0.00 56 1012.2
20260905012045 91 333 0.0 0.0 0.00 0.00 0.00 56 1012.2
20260905011536 92 332 0.0 0.0 0.00 0.00 0.00 55 1012.2
20260905011049 92 332 0.0 0.0 0.00 0.00 0.00 55 1012.3
20260905010603 92 332 0.0 0.0 0.00 0.00 0.00 54 1012.2
20260905010030 92 332 0.0 0.0 0.00 0.00 0.00 54 1012.2
20260905005541 93 332 0.0 0.0 0.00 0.00 0.00 53 1012.1
20260905005047 93 331 0.0 0.0 0.00 0.00 0.00 53 1012.1
20260905004558 93 331 0.0 0.0 0.00 0.00 0.00 52 1012.1
20260905004048 93 331 0.0 0.0 0.00 0.00 0.00 52 1012.1
20260905003559 94 332 0.0 0.0 0.00 0.00 0.00 51 1012.0
20260905003045 94 332 0.0 0.0 0.00 0.00 0.00 51 1011.9
20260905002535 94 331 0.0 0.0 0.00 0.00 0.00 50 1011.9
20260905002043 94 332 0.0 0.0 0.00 0.00 0.00 49 1011.8
20260905001532 94 333 0.0 0.0 0.00 0.00 0.00 49 1011.8
20260905001045 95 333 0.0 0.0 0.00 0.00 0.00 48 1011.8
20260905000531 95 332 0.0 0.0 0.00 0.00 0.00 48 1011.7
20260905000038 95 332 0.0 0.0 0.00 0.00 0.00 48 1011.8
20260904235529 95 332 0.0 0.0 0.00 0.00 0.00 48 1011.7
20260904235040 95 332 0.0 0.0 0.00 0.00 0.00 48 1011.8
20260904234532 95 332 0.0 0.0 0.00 0.00 0.00 48 1011.7
20260904234046 95 331 0.0 0.0 0.00 0.00 0.00 48 1011.7
20260904233535 95 332 0.0 0.0 0.00 0.00 0.00 49 1011.7
20260904233027 95 332 0.0 0.0 0.00 0.00 0.00 49 1011.7
20260904232538 94 332 0.0 0.0 0.00 0.00 0.00 49 1011.7
20260904232032 94 334 0.0 0.0 0.00 0.00 0.00 49 1011.8
20260904231606 94 333 0.0 0.0 0.00 0.00 0.00 50 1011.7
20260904231034 94 331 0.0 0.0 0.00 0.00 0.00 50 1011.6
20260904230544 94 332 0.0 0.0 0.00 0.00 0.00 50 1011.6
20260904230036 94 333 0.0 0.0 0.00 0.00 0.00 50 1011.7
20260904225543 95 333 0.0 0.0 0.00 0.00 0.00 50 1011.8
20260904225033 95 333 0.0 0.0 0.00 0.00 0.00 50 1011.8
20260904224544 95 333 0.0 0.0 0.00 0.00 0.00 50 1011.8
20260904224051 95 331 0.0 0.0 0.00 0.00 0.00 50 1011.8
20260904223544 95 332 0.0 0.0 0.00 0.00 0.00 50 1011.8
20260904223037 95 332 0.0 0.0 0.00 0.00 0.00 49 1011.8
20260904222530 96 332 0.0 0.0 0.00 0.00 0.00 49 1011.8
20260904222027 96 332 0.0 0.0 0.00 0.00 0.00 48 1011.8
20260904221544 97 331 0.0 0.0 0.00 0.00 0.00 47 1011.8
20260904221034 97 331 0.0 0.0 0.00 0.00 0.00 48 1011.8
20260904220542 97 332 0.0 0.0 0.00 0.00 0.00 48 1011.8
20260904220030 97 331 0.0 0.0 0.00 0.00 0.00 48 1011.8
20260904215542 97 331 0.0 0.0 0.00 0.00 0.00 47 1011.9
20260904215029 97 331 0.0 0.0 0.00 0.00 0.00 47 1011.9
20260904214603 98 331 0.0 0.0 0.00 0.00 0.00 46 1012.0
20260904214030 98 331 0.0 0.0 0.00 0.00 0.00 46 1012.0
20260904213539 98 331 0.0 0.0 0.00 0.00 0.00 46 1012.1
20260904213109 99 331 0.0 0.0 0.00 0.00 0.00 45 1012.1
20260904212536 99 333 0.0 0.0 0.00 0.00 0.00 45 1012.2
20260904212049 99 331 0.0 0.0 0.00 0.00 0.00 44 1012.2
20260904211541 99 331 0.0 0.0 0.00 0.00 0.00 44 1012.2
20260904211028 99 332 0.0 0.0 0.00 0.00 0.00 44 1012.2
20260904210546 99 333 0.0 0.0 0.00 0.00 0.00 45 1012.3
20260904210034 98 333 0.0 0.0 0.00 0.00 0.00 45 1012.4
20260904205540 98 331 0.0 0.0 0.00 0.00 0.00 46 1012.5
20260904205031 98 334 0.0 0.0 0.00 0.00 0.00 46 1012.5
20260904204540 98 333 0.0 0.0 0.00 0.00 0.00 46 1012.5
20260904204047 99 331 0.0 0.0 0.00 0.00 0.00 45 1012.6
20260904203559 99 331 0.0 0.0 0.00 0.00 0.00 45 1012.6
20260904203045 99 333 0.0 0.0 0.00 0.00 0.00 46 1012.6
20260904202532 98 331 0.0 0.0 0.00 0.00 0.00 46 1012.6
20260904202105 98 331 0.0 0.0 0.00 0.00 0.00 46 1012.8
20260904201535 98 333 0.0 0.0 0.00 0.00 0.00 46 1012.8
20260904201044 98 331 0.0 0.0 0.00 0.00 0.00 47 1012.9
20260904200532 97 333 0.0 0.0 0.00 0.00 0.00 46 1013.0
20260904200046 97 331 0.0 0.0 0.00 0.00 0.00 46 1013.1
20260904195536 97 334 0.0 0.0 0.00 0.00 0.00 46 1013.2
20260904195048 97 331 0.0 0.0 0.00 0.00 0.00 46 1013.2
20260904194535 98 332 0.0 0.0 0.00 0.00 0.00 47 1013.3
20260904194032 97 331 0.0 0.0 0.00 0.00 0.00 47 1013.3
20260904193539 97 333 0.0 0.0 0.00 0.00 0.00 47 1013.4
20260904193046 97 331 0.0 0.0 0.00 0.00 0.00 48 1013.4
20260904192533 96 332 0.0 0.0 0.00 0.00 0.00 48 1013.5
20260904192107 96 331 0.0 0.0 0.00 0.00 0.00 47 1013.6
20260904191538 96 329 0.0 0.0 0.00 0.00 0.00 47 1013.6
20260904191048 96 332 0.0 0.0 0.00 0.00 0.00 47 1013.7
20260904190537 96 332 0.0 0.0 0.00 0.00 0.00 48 1013.7
20260904190110 96 331 0.0 0.0 0.00 0.00 0.00 48 1013.8